Location: Gälforsberget
(66.6500°N, 22.4167°E)
Time: 06:34:22
(UTC+00:00)

Cosmos 1125 Rocket - Pass Details

Date: 11 April 2026
Orbit: 752 x 776 km, 74.0° (Epoch: 10 May)

Event Time Altitude Azimuth Distance (km) Brightness Sun altitude
Exits shadow 20:51:21 12° 190° (S) 2,176 5.4 -12.6°
Maximum altitude 20:56:02 49° 117° (ESE) 987 3.8 -12.8°
Drops below altitude 10° 21:01:06 10° 44° (NE) 2,328 6.3 -13.0°
Sets 21:03:33 0° 40° (NE) 3,262 7.2 -13.1°
